Content
SEND FEEDBACK

Daily
Averages
Monthly
Summary
Canada

VANCOUVER, BRITISH COLUMBIA


Home > North America > Canada > British Columbia
Elevation: 7 feet     Latitude: 49 11N     Longitude: 123 10W

WEATHER
 
SELECT A DAY
Number of Records: 249,842;   Date Range: 5/15/97 - 9/17/14
 
SHARE

PRINT THIS DATA

[ ← Previous Day ]
WEATHER ALMANAC - JANUARY 9, 2013
[ Next Day → ]
[ °C ]   °F
Weather ElementAverageHighLow
Temperature42.8 °F46.4 °F (12:35 am)37.4 °F (8:35 pm)
Dewpoint37.2 °F42.8 °F (12:35 am)32 °F (5:55 pm)
Humidity80.5 %93 % (7:15 am)70 % (4:15 pm)
Barometer29.71 in29.89 in (10:15 pm)29.62 in (4:55 am)
Wind Speed8.8 mph17.3 mph (1:55 am)
Wind Gust25.3 mph (12:35 am)
Weather ElementAverage
Visibility9.9 mi
Wind DirectionSSW (195.8 °)

Weather ElementTotal
Precipitation0.02 in
Heating Degree Days23.1 (Base 65)
Averaged from 60 records on January 9, 2013
WEATHER CONDITIONS BREAKOUT
WIND DIRECTION BREAKOUT
WEATHER BY HOUR - JANUARY 9, 2013
[ °C ]   °F
Local TimeTemperatureDewpointHumidityBarometerVisibilityWind DirectionWind SpeedGust SpeedPrecipitationEventsConditions
12:35 AM46.4 °F42.8 °F87 %29.67 in7.0 miSW (220°)12.7 mph25.3 mph0.01 inRainLight Rain
12:55 AM46.4 °F42.8 °F87 %29.67 in8.0 miSSW (210°)13.8 mph21.9 mph0.01 inRainLight Rain
1:15 AM46.4 °F41.0 °F81 %29.66 in10.0 miSSW (210°)12.7 mph23.0 mphRainLight Rain
1:35 AM44.6 °F41.0 °F87 %29.66 in10.0 miSSW (210°)16.1 mph23.0 mphClear
1:55 AM44.6 °F41.0 °F87 %29.65 in10.0 miSSW (210°)17.3 mph24.2 mphClear
2:15 AM44.6 °F41.0 °F87 %29.66 in10.0 miSSW (210°)16.1 mph20.7 mphClear
2:35 AM44.6 °F41.0 °F87 %29.66 in10.0 miSSW (210°)11.5 mph19.6 mphClear
2:55 AM44.6 °F39.2 °F81 %29.67 in10.0 miSW (220°)12.7 mph19.6 mphScattered Clouds
3:15 AM44.6 °F39.2 °F81 %29.67 in10.0 miSW (220°)10.4 mph19.6 mphMostly Cloudy
3:35 AM44.6 °F39.2 °F81 %29.66 in10.0 miSSW (200°)10.4 mph18.4 mphMostly Cloudy
3:55 AM44.6 °F39.2 °F81 %29.66 in10.0 miSSW (210°)9.2 mphScattered Clouds
4:15 AM44.6 °F39.2 °F81 %29.65 in10.0 miSW (220°)12.7 mph16.1 mphPartly Cloudy
4:35 AM44.6 °F39.2 °F81 %29.64 in10.0 miSSW (200°)11.5 mphClear
4:55 AM44.6 °F39.2 °F81 %29.62 in10.0 miSouth (190°)12.7 mph19.6 mphClear
5:15 AM44.6 °F39.2 °F81 %29.63 in10.0 miSouth (190°)9.2 mph17.3 mphClear
5:35 AM44.6 °F39.2 °F81 %29.63 in10.0 miSouth (190°)5.8 mphClear
5:55 AM44.6 °F39.2 °F81 %29.63 in10.0 miSSW (200°)4.6 mphClear
6:35 AM42.8 °F39.2 °F87 %29.64 in10.0 miSSW (210°)10.4 mphScattered Clouds
6:55 AM42.8 °F39.2 °F87 %29.64 in10.0 miSSW (200°)5.8 mphClear
7:15 AM41.0 °F39.2 °F93 %29.64 in10.0 miCalmClear
7:35 AM41.0 °F39.2 °F93 %29.65 in10.0 miSW (220°)4.6 mphClear
7:55 AM42.8 °F39.2 °F87 %29.65 in10.0 miSouth (190°)6.9 mphClear
8:15 AM41.0 °F39.2 °F93 %29.65 in10.0 miSouth (180°)8.1 mphClear
8:35 AM42.8 °F39.2 °F87 %29.66 in10.0 miSSW (200°)9.2 mphClear
8:55 AM42.8 °F37.4 °F81 %29.67 in10.0 miSSW (200°)9.2 mphClear
9:15 AM42.8 °F39.2 °F87 %29.68 in10.0 miSSW (200°)12.7 mphClear
9:35 AM42.8 °F37.4 °F81 %29.68 in10.0 miSouth (190°)10.4 mphClear
10:15 AM42.8 °F37.4 °F81 %29.69 in10.0 miSSW (200°)8.1 mphClear
10:35 AM42.8 °F37.4 °F81 %29.69 in10.0 miSSW (210°)8.1 mphClear
10:55 AM42.8 °F37.4 °F81 %29.69 in10.0 miSSW (200°)9.2 mphClear
11:15 AM42.8 °F37.4 °F81 %29.70 in10.0 miSouth (180°)4.6 mphClear
11:35 AM44.6 °F37.4 °F76 %29.69 in10.0 miSouth (180°)5.8 mphClear
12:15 PM44.6 °F37.4 °F76 %29.69 in10.0 miSouth (180°)5.8 mphClear
12:35 PM44.6 °F37.4 °F76 %29.70 in10.0 miSouth (170°)3.5 mphClear
12:55 PM44.6 °F37.4 °F76 %29.69 in10.0 miSouth (170°)4.6 mphClear
1:15 PM44.6 °F37.4 °F76 %29.70 in10.0 miSSW (200°)11.5 mphClear
1:35 PM44.6 °F37.4 °F76 %29.70 in10.0 miSSW (200°)11.5 mphPartly Cloudy
1:55 PM44.6 °F37.4 °F76 %29.72 in10.0 miSSW (200°)9.2 mphClear
2:15 PM42.8 °F37.4 °F81 %29.73 in10.0 miSSW (200°)6.9 mphClear
2:35 PM42.8 °F37.4 °F81 %29.73 in10.0 miSouth (170°)4.6 mphClear
2:55 PM42.8 °F37.4 °F81 %29.74 in10.0 miSSW (200°)8.1 mphPartly Cloudy
3:15 PM42.8 °F37.4 °F81 %29.74 in10.0 miSouth (170°)4.6 mphPartly Cloudy
3:35 PM42.8 °F35.6 °F76 %29.75 in10.0 miSSW (200°)6.9 mphClear
3:55 PM42.8 °F35.6 °F76 %29.75 in10.0 miSSW (200°)4.6 mphClear
4:15 PM42.8 °F33.8 °F70 %29.76 in10.0 miSW (230°)8.1 mphClear
4:35 PM42.8 °F33.8 °F70 %29.76 in10.0 miSSW (200°)6.9 mphClear
4:55 PM41.0 °F33.8 °F76 %29.76 in10.0 miSSW (200°)10.4 mphClear
5:15 PM41.0 °F33.8 °F76 %29.77 in10.0 miSouth (190°)8.1 mphClear
5:35 PM41.0 °F33.8 °F76 %29.78 in10.0 miSSW (210°)9.2 mphClear
5:55 PM41.0 °F32.0 °F70 %29.79 in10.0 miSouth (190°)6.9 mphClear
6:35 PM41.0 °F32.0 °F70 %29.81 in10.0 miSSW (200°)5.8 mphClear
6:55 PM41.0 °F32.0 °F70 %29.81 in10.0 miSouth (190°)9.2 mphClear
7:15 PM39.2 °F32.0 °F75 %29.82 in10.0 miSouth (190°)6.9 mphClear
7:55 PM39.2 °F32.0 °F75 %29.83 in10.0 miSouth (190°)6.9 mphClear
8:15 PM39.2 °F32.0 °F75 %29.84 in10.0 miSSW (210°)8.1 mphClear
8:35 PM37.4 °F32.0 °F81 %29.85 in10.0 miSSW (200°)9.2 mphClear
9:15 PM39.2 °F33.8 °F81 %29.85 in10.0 miSSW (210°)9.2 mphClear
9:35 PM39.2 °F33.8 °F81 %29.86 in10.0 miSSW (200°)10.4 mphClear
9:55 PM39.2 °F33.8 °F81 %29.88 in10.0 miSSW (200°)9.2 mphClear
10:15 PM39.2 °F33.8 °F81 %29.89 in10.0 miSSW (200°)9.2 mphClear
Hourly data recorded from CZBB, located miles away from Vancouver, British Columbia







STORIES FROM OUR PARTNERS